Flag for Trinidad and Tobago Weather past 2 weeks in San Fernando, Trinidad and Tobago

Now
73 °F

Rain. Partly cloudy.


Feels Like: 70 °F
Forecast: 78 / 84 °F
Wind: 6 mph from East

Location: Piarco International Airport - Trinidad

Current Time: Feb 26, 2015 at 9:31:54 PM

Latest Report: Feb 26, 2015 at 8:00 PM


Visibility: 1 mi

Pressure: 29.98 "Hg

Humidity: 94%

Dew point: 72 °F

Location of San FernandoLocation

Historic Weather in San Fernando — Graph

°F

San Fernando temperature yesterday

Maximum temperature yesterday: 90 °F (at 12:00 PM)
Minimum temperature yesterday: 72 °F (at 4:00 AM)
Average temperature yesterday: 80 °F

Past Weeks' High & Low Weather Summary

 TemperatureHumidityPressure
High91 °F (Feb 12, 1:00 PM)94% (Feb 12, 5:00 AM)30.04 "Hg (Feb 12, 5:00 AM)
Low68 °F (Feb 19, 6:00 AM)43% (Feb 23, 12:00 PM)29.83 "Hg (Feb 19, 4:00 PM)
Average80 °F74%29.94 "Hg
* Reported Feb 11 8:00 PM — Feb 26 8:00 PM, San Fernando, Weather by CustomWeather, © 2015

Note: Actual official high and low records may vary slightly from our data, if they occured in-between our weather recording intervals... More about our weather records

Advertising

San Fernando weather history for previous 24 hours

 ConditionsComfort  
Time TempWeatherWind HumidityBarometerVisibility
8:00 PM
Thu, Feb 26
73 °FRain. Partly cloudy.6 mph94%29.98 "Hg1 mi
7:00 PM73 °FScattered showers. Passing clouds.9 mph94%29.95 "Hg2 mi
6:00 PM81 °FScattered showers. Scattered clouds.12 mph74%29.92 "Hg3 mi
5:00 PM84 °FScattered showers. Passing clouds.12 mph66%29.89 "HgN/A
4:00 PM81 °FSprinkles. Cloudy.16 mph84%29.86 "Hg4 mi
3:20 PM82 °FScattered showers. Partly sunny.16 mph74%29.89 "Hg3 mi
3:00 PM86 °FScattered showers. Scattered clouds.14 mph59%29.89 "Hg5 mi
2:00 PM86 °FScattered clouds.12 mph59%29.89 "HgN/A
1:00 PM88 °FPartly sunny.14 mph55%29.92 "HgN/A
12:00 PM90 °FPartly sunny.14 mph49%29.95 "HgN/A
11:00 AM90 °FPartly sunny.14 mph49%29.98 "HgN/A
10:00 AM88 °FPassing clouds.16 mph52%29.98 "HgN/A
9:00 AM86 °FPassing clouds.14 mph55%29.98 "HgN/A
8:00 AM81 °FScattered clouds.No wind70%29.98 "HgN/A
7:00 AM73 °FScattered clouds.No wind89%29.95 "HgN/A
6:00 AM73 °FPassing clouds.No wind83%29.95 "HgN/A
5:00 AM73 °FPassing clouds.No wind89%29.92 "HgN/A
4:00 AM73 °FPassing clouds.No wind89%29.92 "HgN/A
3:00 AM73 °FPassing clouds.No wind89%29.92 "HgN/A
2:00 AM73 °FPassing clouds.No wind89%29.95 "HgN/A
1:00 AM75 °FPassing clouds.No wind83%29.95 "HgN/A
12:00 AM75 °FPassing clouds.No wind83%29.95 "HgN/A
11:00 PM
Wed, Feb 25
75 °FPassing clouds.6 mph83%29.98 "HgN/A
10:00 PM75 °FPassing clouds.6 mph83%29.98 "HgN/A
9:00 PM77 °FPassing clouds.6 mph79%29.95 "HgN/A
Weather by CustomWeather, © 2015

See weather overviewHow to use our weather pages